This demonstration page uses our WeatherBlox Daily Observations layout. Learn more.

Left ArrowRight Arrow

38.20091, -84.87328

Hourly Observations for April 8, 2016

Temp ( °F °C ) Dew Point ( °F °C ) Humidity (%) Winds ( mph kmh ) Pressure ( in mb ) Visibility ( mi km ) Precip ( " mm )
12:53 am 00:53 Clear 40 4.4 27 -2.8 60 60 NNW 10 17 29.88 1012 10 16 0.00 0.00
1:53 am 01:53 Clear 38 3.3 26 -3.3 62 62 NW 5 7 29.88 1012 10 16 0.00 0.00
2:53 am 02:53 Clear 34 1.1 26 -3.3 73 73 Calm 29.89 1012 10 16 0.00 0.00
3:53 am 03:53 Clear 31 -0.6 26 -3.3 82 82 Calm 29.89 1012 10 16 0.00 0.00
4:53 am 04:53 Clear 31 -0.6 25 -3.9 79 79 Calm 29.89 1012 10 16 0.00 0.00
5:53 am 05:53 Clear 30 -1.1 26 -3.3 85 85 Calm 29.89 1012 10 16 0.00 0.00
6:53 am 06:53 Clear 28 -2.2 24 -4.4 85 85 Calm 29.89 1012 10 16 0.00 0.00
7:53 am 07:53 Mostly Cloudy 32 0 27 -2.8 82 82 W 3 6 29.90 1012 10 16 0.00 0.00
8:53 am 08:53 Cloudy 36 2.2 29 -1.7 76 76 WSW 6 9 29.91 1013 10 16 0.00 0.00
9:53 am 09:53 Cloudy 39 3.9 29 -1.7 67 67 SSW 7 11 29.91 1013 10 16 0.00 0.00
10:53 am 10:53 Cloudy 42 5.6 29 -1.7 60 60 SW 8 13 29.91 1013 10 16 0.00 0.00
11:53 am 11:53 Cloudy with Light Rain 40 4.4 31 -0.6 70 70 SW 13 20 29.92 1013 10 16 0.00 0.03
12:53 pm 12:53 Cloudy 39 3.9 33 0.6 79 79 VRB 3 6 29.92 1013 10 16 0.00 0.03
1:53 pm 13:53 Cloudy 45 7.2 35 1.7 68 68 S 9 15 29.90 1013 10 16 0.01 0.25
2:53 pm 14:53 Cloudy 46 7.8 34 1.1 63 63 SW 9 15 29.88 1012 10 16 0.00 0.00
3:03 pm 15:03 Cloudy 46 7.8 33 0.6 61 61 S 9 15 29.88 1012 10 16 0.00 0.00
3:53 pm 15:53 Cloudy with Heavy Rain 42 5.6 36 2.2 79 79 WSW 9 15 29.87 1012 2 3 0.03 0.76
4:05 pm 16:05 Cloudy with Light Rain 43 6.1 37 2.8 80 80 W 13 20 29.91 1013 8 13 0.01 0.25
4:24 pm 16:24 Cloudy 43 6.1 37 2.8 80 80 W 9 15 29.88 1012 10 16 0.01 0.25
4:53 pm 16:53 Cloudy 45 7.2 37 2.8 74 74 W 15 24 29.86 1011 10 16 0.01 0.25
5:03 pm 17:03 Cloudy 45 7.2 38 3.3 77 77 W 12 19 29.88 1012 10 16 0.00 0.00
5:29 pm 17:29 Cloudy 43 6.1 37 2.8 80 80 W 9 15 29.88 1012 10 16 0.01 0.25
5:53 pm 17:53 Cloudy 45 7.2 36 2.2 71 71 W 12 19 29.87 1012 10 16 0.01 0.25
6:53 pm 18:53 Mostly Cloudy 45 7.2 33 0.6 63 63 W 14 22 29.88 1012 10 16 0.00 0.00
7:53 pm 19:53 Cloudy 44 6.7 28 -2.2 53 53 W 14 22 29.90 1013 10 16 0.00 0.00
8:53 pm 20:53 Partly Cloudy 42 5.6 27 -2.8 55 55 W 12 19 29.91 1013 10 16 0.00 0.00
9:53 pm 21:53 Clear 38 3.3 26 -3.3 62 62 SW 7 11 29.91 1013 10 16 0.00 0.00
10:53 pm 22:53 Cloudy 41 5 28 -2.2 60 60 W 15 24 29.93 1013 10 16 0.00 0.00
11:37 pm 23:37 Cloudy with Rain 37 2.8 31 -0.6 79 79 WNW 13 20 29.97 1015 4 6 0.02 0.51
11:53 pm 23:53 Cloudy 37 2.8 32 0 82 82 W 7 11 29.94 1014 10 16 0.02 0.51

Powered by AerisWeather